Year,Month,Day,Hour,Minute,Value (Times are PST for temperature in C)
2008,05,09,00,00,5.10
2008,05,09,00,01,5.10
2008,05,09,00,02,5.10
2008,05,09,00,03,5.10
2008,05,09,00,04,5.10
2008,05,09,00,05,5.10
2008,05,09,00,06,5.10
2008,05,09,00,07,4.90
2008,05,09,00,08,4.90
2008,05,09,00,09,4.90
2008,05,09,00,10,4.90
2008,05,09,00,11,4.90
2008,05,09,00,12,4.90
2008,05,09,00,13,4.90
2008,05,09,00,14,4.80
2008,05,09,00,15,4.80
2008,05,09,00,16,4.80
2008,05,09,00,17,4.70
2008,05,09,00,18,4.70
2008,05,09,00,19,4.70
2008,05,09,00,20,4.60
2008,05,09,00,21,4.60
2008,05,09,00,22,4.60
2008,05,09,00,23,4.60
2008,05,09,00,24,4.60
2008,05,09,00,25,4.60
2008,05,09,00,26,4.60
2008,05,09,00,27,4.60
2008,05,09,00,28,4.50
2008,05,09,00,29,4.50
2008,05,09,00,30,4.50
2008,05,09,00,31,4.50
2008,05,09,00,32,4.40
2008,05,09,00,33,4.40
2008,05,09,00,34,4.40
2008,05,09,00,35,4.30
2008,05,09,00,36,4.30
2008,05,09,00,37,4.30
2008,05,09,00,38,4.20
2008,05,09,00,39,4.20
2008,05,09,00,40,4.20
2008,05,09,00,41,4.20
2008,05,09,00,42,4.20
2008,05,09,00,43,4.20
2008,05,09,00,44,4.20
2008,05,09,00,45,4.20
2008,05,09,00,46,4.20
2008,05,09,00,47,4.20
2008,05,09,00,48,4.20
2008,05,09,00,49,4.20
2008,05,09,00,50,4.20
2008,05,09,00,51,4.20
2008,05,09,00,52,4.20
2008,05,09,00,53,4.10
2008,05,09,00,54,4.10
2008,05,09,00,55,4.10
2008,05,09,00,56,4.10
2008,05,09,00,57,4.10
2008,05,09,00,58,4.10
2008,05,09,00,59,4.10
2008,05,09,01,00,4.10
2008,05,09,01,01,4.10
2008,05,09,01,02,4.10
2008,05,09,01,03,4.10
2008,05,09,01,04,4.10
2008,05,09,01,05,4.10
2008,05,09,01,06,4.00
2008,05,09,01,07,4.00
2008,05,09,01,08,4.00
2008,05,09,01,09,4.00
2008,05,09,01,10,4.00
2008,05,09,01,11,4.00
2008,05,09,01,12,4.00
2008,05,09,01,13,4.00
2008,05,09,01,14,4.00
2008,05,09,01,15,4.00
2008,05,09,01,16,3.90
2008,05,09,01,17,3.90
2008,05,09,01,18,3.90
2008,05,09,01,19,3.90
2008,05,09,01,20,3.90
2008,05,09,01,21,3.80
2008,05,09,01,22,3.80
2008,05,09,01,23,3.80
2008,05,09,01,24,3.80
2008,05,09,01,25,3.80
2008,05,09,01,26,3.80
2008,05,09,01,27,3.80
2008,05,09,01,28,3.80
2008,05,09,01,29,3.80
2008,05,09,01,30,3.80
2008,05,09,01,31,3.80
2008,05,09,01,32,3.80
2008,05,09,01,33,3.80
2008,05,09,01,34,3.80
2008,05,09,01,35,3.80
2008,05,09,01,36,3.80
2008,05,09,01,37,3.80
2008,05,09,01,38,3.80
2008,05,09,01,39,3.80
2008,05,09,01,40,3.80
2008,05,09,01,41,3.80
2008,05,09,01,42,3.80
2008,05,09,01,43,3.80
2008,05,09,01,44,3.70
2008,05,09,01,45,3.70
2008,05,09,01,46,3.70
2008,05,09,01,47,3.70
2008,05,09,01,48,3.70
2008,05,09,01,49,3.70
2008,05,09,01,50,3.70
2008,05,09,01,51,3.60
2008,05,09,01,52,3.60
2008,05,09,01,53,3.60
2008,05,09,01,54,3.60
2008,05,09,01,55,3.60
2008,05,09,01,56,3.60
2008,05,09,01,57,3.60
2008,05,09,01,58,3.60
2008,05,09,01,59,3.60
2008,05,09,02,00,3.60
2008,05,09,02,01,3.60
2008,05,09,02,02,3.60
2008,05,09,02,03,3.60
2008,05,09,02,04,3.60
2008,05,09,02,05,3.60
2008,05,09,02,06,3.60
2008,05,09,02,07,3.60
2008,05,09,02,08,3.60
2008,05,09,02,09,3.60
2008,05,09,02,10,3.60
2008,05,09,02,11,3.60
2008,05,09,02,12,3.60
2008,05,09,02,13,3.60
2008,05,09,02,14,3.60
2008,05,09,02,15,3.60
2008,05,09,02,16,3.60
2008,05,09,02,17,3.60
2008,05,09,02,18,3.50
2008,05,09,02,19,3.50
2008,05,09,02,20,3.50
2008,05,09,02,21,3.60
2008,05,09,02,22,3.60
2008,05,09,02,23,3.60
2008,05,09,02,24,3.60
2008,05,09,02,25,3.60
2008,05,09,02,26,3.60
2008,05,09,02,27,3.70
2008,05,09,02,28,3.80
2008,05,09,02,29,3.80
2008,05,09,02,30,3.80
2008,05,09,02,31,3.80
2008,05,09,02,32,3.90
2008,05,09,02,33,3.90
2008,05,09,02,34,4.00
2008,05,09,02,35,4.00
2008,05,09,02,36,4.10
2008,05,09,02,37,4.10
2008,05,09,02,38,4.10
2008,05,09,02,39,4.20
2008,05,09,02,40,4.20
2008,05,09,02,41,4.20
2008,05,09,02,42,4.20
2008,05,09,02,43,4.20
2008,05,09,02,44,4.20
2008,05,09,02,45,4.20
2008,05,09,02,46,4.20
2008,05,09,02,47,4.20
2008,05,09,02,48,4.20
2008,05,09,02,49,4.20
2008,05,09,02,50,4.20
2008,05,09,02,51,4.20
2008,05,09,02,52,4.20
2008,05,09,02,53,4.20
2008,05,09,02,54,4.20
2008,05,09,02,55,4.20
2008,05,09,02,56,4.20
2008,05,09,02,57,4.20
2008,05,09,02,58,4.30
2008,05,09,02,59,4.30
2008,05,09,03,00,4.30
2008,05,09,03,01,4.30
2008,05,09,03,02,4.20
2008,05,09,03,03,4.10
2008,05,09,03,04,4.00
2008,05,09,03,05,4.00
2008,05,09,03,06,3.90
2008,05,09,03,07,3.90
2008,05,09,03,08,4.00
2008,05,09,03,09,4.10
2008,05,09,03,10,4.10
2008,05,09,03,11,4.00
2008,05,09,03,12,4.00
2008,05,09,03,13,4.10
2008,05,09,03,14,4.10
2008,05,09,03,15,4.20
2008,05,09,03,16,4.20
2008,05,09,03,17,4.20
2008,05,09,03,18,4.20
2008,05,09,03,19,4.20
2008,05,09,03,20,4.20
2008,05,09,03,21,4.20
2008,05,09,03,22,4.20
2008,05,09,03,23,4.20
2008,05,09,03,24,4.20
2008,05,09,03,25,4.10
2008,05,09,03,26,4.10
2008,05,09,03,27,4.00
2008,05,09,03,28,4.00
2008,05,09,03,29,3.90
2008,05,09,03,30,3.80
2008,05,09,03,31,3.80
2008,05,09,03,32,3.80
2008,05,09,03,33,3.70
2008,05,09,03,34,3.60
2008,05,09,03,35,3.60
2008,05,09,03,36,3.60
2008,05,09,03,37,3.60
2008,05,09,03,38,3.60
2008,05,09,03,39,3.60
2008,05,09,03,40,3.60
2008,05,09,03,41,3.50
2008,05,09,03,42,3.50
2008,05,09,03,43,3.40
2008,05,09,03,44,3.40
2008,05,09,03,45,3.40
2008,05,09,03,46,3.30
2008,05,09,03,47,3.20
2008,05,09,03,48,3.10
2008,05,09,03,49,3.10
2008,05,09,03,50,3.10
2008,05,09,03,51,3.00
2008,05,09,03,52,2.90
2008,05,09,03,53,2.90
2008,05,09,03,54,2.90
2008,05,09,03,55,2.90
2008,05,09,03,56,2.90
2008,05,09,03,57,2.90
2008,05,09,03,58,2.90
2008,05,09,03,59,2.80
2008,05,09,04,00,2.80
2008,05,09,04,01,2.80
2008,05,09,04,02,2.70
2008,05,09,04,03,2.70
2008,05,09,04,04,2.70
2008,05,09,04,05,2.70
2008,05,09,04,06,2.70
2008,05,09,04,07,2.70
2008,05,09,04,08,2.70
2008,05,09,04,09,2.70
2008,05,09,04,10,2.70
2008,05,09,04,11,2.70
2008,05,09,04,12,2.60
2008,05,09,04,13,2.60
2008,05,09,04,14,2.50
2008,05,09,04,15,2.50
2008,05,09,04,16,2.40
2008,05,09,04,17,2.30
2008,05,09,04,18,2.30
2008,05,09,04,19,2.20
2008,05,09,04,20,2.20
2008,05,09,04,21,2.20
2008,05,09,04,22,2.20
2008,05,09,04,23,2.20
2008,05,09,04,24,2.20
2008,05,09,04,25,2.20
2008,05,09,04,26,2.20
2008,05,09,04,27,2.20
2008,05,09,04,28,2.20
2008,05,09,04,29,2.10
2008,05,09,04,30,2.10
2008,05,09,04,31,2.10
2008,05,09,04,32,2.10
2008,05,09,04,33,2.10
2008,05,09,04,34,2.10
2008,05,09,04,35,2.10
2008,05,09,04,36,2.10
2008,05,09,04,37,2.10
2008,05,09,04,38,2.10
2008,05,09,04,39,2.10
2008,05,09,04,40,2.10
2008,05,09,04,41,2.20
2008,05,09,04,42,2.20
2008,05,09,04,43,2.20
2008,05,09,04,44,2.20
2008,05,09,04,45,2.20
2008,05,09,04,46,2.20
2008,05,09,04,47,2.20
2008,05,09,04,48,2.20
2008,05,09,04,49,2.20
2008,05,09,04,50,2.20
2008,05,09,04,51,2.20
2008,05,09,04,52,2.30
2008,05,09,04,53,2.30
2008,05,09,04,54,2.30
2008,05,09,04,55,2.30
2008,05,09,04,56,2.30
2008,05,09,04,57,2.40
2008,05,09,04,58,2.40
2008,05,09,04,59,2.50
2008,05,09,05,00,2.50
2008,05,09,05,01,2.50
2008,05,09,05,02,2.50
2008,05,09,05,03,2.50
2008,05,09,05,04,2.50
2008,05,09,05,05,2.50
2008,05,09,05,06,2.40
2008,05,09,05,07,2.30
2008,05,09,05,08,2.30
2008,05,09,05,09,2.30
2008,05,09,05,10,2.20
2008,05,09,05,11,2.20
2008,05,09,05,12,2.20
2008,05,09,05,13,2.20
2008,05,09,05,14,2.20
2008,05,09,05,15,2.20
2008,05,09,05,16,2.30
2008,05,09,05,17,2.40
2008,05,09,05,18,2.40
2008,05,09,05,19,2.50
2008,05,09,05,20,2.50
2008,05,09,05,21,2.50
2008,05,09,05,22,2.50
2008,05,09,05,23,2.40
2008,05,09,05,24,2.30
2008,05,09,05,25,2.30
2008,05,09,05,26,2.30
2008,05,09,05,27,2.30
2008,05,09,05,28,2.20
2008,05,09,05,29,2.20
2008,05,09,05,30,2.20
2008,05,09,05,31,2.10
2008,05,09,05,32,2.10
2008,05,09,05,33,2.10
2008,05,09,05,34,2.10
2008,05,09,05,35,2.10
2008,05,09,05,36,2.10
2008,05,09,05,37,2.10
2008,05,09,05,38,2.10
2008,05,09,05,39,2.10
2008,05,09,05,40,2.10
2008,05,09,05,41,2.00
2008,05,09,05,42,2.00
2008,05,09,05,43,1.90
2008,05,09,05,44,1.90
2008,05,09,05,45,1.80
2008,05,09,05,46,1.80
2008,05,09,05,47,1.80
2008,05,09,05,48,1.80
2008,05,09,05,49,1.80
2008,05,09,05,50,1.80
2008,05,09,05,51,1.80
2008,05,09,05,52,1.90
2008,05,09,05,53,1.90
2008,05,09,05,54,1.90
2008,05,09,05,55,1.90
2008,05,09,05,56,1.90
2008,05,09,05,57,1.90
2008,05,09,05,58,1.90
2008,05,09,05,59,1.80
2008,05,09,06,00,1.80
2008,05,09,06,01,1.80
2008,05,09,06,02,1.80
2008,05,09,06,03,1.80
2008,05,09,06,04,1.80
2008,05,09,06,05,1.80
2008,05,09,06,06,1.80
2008,05,09,06,07,1.80
2008,05,09,06,08,1.80
2008,05,09,06,09,1.80
2008,05,09,06,10,1.80
2008,05,09,06,11,1.80
2008,05,09,06,12,1.80
2008,05,09,06,13,1.90
2008,05,09,06,14,1.90
2008,05,09,06,15,1.90
2008,05,09,06,16,2.00
2008,05,09,06,17,1.90
2008,05,09,06,18,1.90
2008,05,09,06,19,1.90
2008,05,09,06,20,1.80
2008,05,09,06,21,1.80
2008,05,09,06,22,1.80
2008,05,09,06,23,1.80
2008,05,09,06,24,1.90
2008,05,09,06,25,2.00
2008,05,09,06,26,2.00
2008,05,09,06,27,2.10
2008,05,09,06,28,2.10
2008,05,09,06,29,2.20
2008,05,09,06,30,2.20
2008,05,09,06,31,2.30
2008,05,09,06,32,2.40
2008,05,09,06,33,2.50
2008,05,09,06,34,2.50
2008,05,09,06,35,2.50
2008,05,09,06,36,2.60
2008,05,09,06,37,2.70
2008,05,09,06,38,2.70
2008,05,09,06,39,2.70
2008,05,09,06,40,2.70
2008,05,09,06,41,2.70
2008,05,09,06,42,2.70
2008,05,09,06,43,2.70
2008,05,09,06,44,2.70
2008,05,09,06,45,2.70
2008,05,09,06,46,2.70
2008,05,09,06,47,2.70
2008,05,09,06,48,2.70
2008,05,09,06,49,2.70
2008,05,09,06,50,2.70
2008,05,09,06,51,2.80
2008,05,09,06,52,2.80
2008,05,09,06,53,2.90
2008,05,09,06,54,2.90
2008,05,09,06,55,3.00
2008,05,09,06,56,3.10
2008,05,09,06,57,3.20
2008,05,09,06,58,3.20
2008,05,09,06,59,3.30
2008,05,09,07,00,3.30
2008,05,09,07,01,3.40
2008,05,09,07,02,3.50
2008,05,09,07,03,3.60
2008,05,09,07,04,3.60
2008,05,09,07,05,3.70
2008,05,09,07,06,3.70
2008,05,09,07,07,3.80
2008,05,09,07,08,3.80
2008,05,09,07,09,3.90
2008,05,09,07,10,4.00
2008,05,09,07,11,4.00
2008,05,09,07,12,4.10
2008,05,09,07,13,4.20
2008,05,09,07,14,4.20
2008,05,09,07,15,4.20
2008,05,09,07,16,4.30
2008,05,09,07,17,4.40
2008,05,09,07,18,4.40
2008,05,09,07,19,4.50
2008,05,09,07,20,4.50
2008,05,09,07,21,4.50
2008,05,09,07,22,4.50
2008,05,09,07,23,4.60
2008,05,09,07,24,4.60
2008,05,09,07,25,4.60
2008,05,09,07,26,4.70
2008,05,09,07,27,4.70
2008,05,09,07,28,4.80
2008,05,09,07,29,4.90
2008,05,09,07,30,5.00
2008,05,09,07,31,5.10
2008,05,09,07,32,5.10
2008,05,09,07,33,5.20
2008,05,09,07,34,5.30
2008,05,09,07,35,5.40
2008,05,09,07,36,5.50
2008,05,09,07,37,5.50
2008,05,09,07,38,5.70
2008,05,09,07,39,5.70
2008,05,09,07,40,5.70
2008,05,09,07,41,5.80
2008,05,09,07,42,5.90
2008,05,09,07,43,6.00
2008,05,09,07,44,6.00
2008,05,09,07,45,6.10
2008,05,09,07,46,6.20
2008,05,09,07,47,6.20
2008,05,09,07,48,6.30
2008,05,09,07,49,6.30
2008,05,09,07,50,6.30
2008,05,09,07,51,6.40
2008,05,09,07,52,6.40
2008,05,09,07,53,6.50
2008,05,09,07,54,6.60
2008,05,09,07,55,6.70
2008,05,09,07,56,6.70
2008,05,09,07,57,6.80
2008,05,09,07,58,6.90
2008,05,09,07,59,7.00
2008,05,09,08,00,7.10
2008,05,09,08,01,7.20
2008,05,09,08,02,7.30
2008,05,09,08,03,7.30
2008,05,09,08,04,7.30
2008,05,09,08,05,7.40
2008,05,09,08,06,7.40
2008,05,09,08,07,7.40
2008,05,09,08,08,7.30
2008,05,09,08,09,7.30
2008,05,09,08,10,7.30
2008,05,09,08,11,7.30
2008,05,09,08,12,7.30
2008,05,09,08,13,7.30
2008,05,09,08,14,7.30
2008,05,09,08,15,7.30
2008,05,09,08,16,7.20
2008,05,09,08,17,7.20
2008,05,09,08,18,7.10
2008,05,09,08,19,7.00
2008,05,09,08,20,6.90
2008,05,09,08,21,6.80
2008,05,09,08,22,6.80
2008,05,09,08,23,6.80
2008,05,09,08,24,6.80
2008,05,09,08,25,6.80
2008,05,09,08,26,6.80
2008,05,09,08,27,6.70
2008,05,09,08,28,6.80
2008,05,09,08,29,6.80
2008,05,09,08,30,6.80
2008,05,09,08,31,6.70
2008,05,09,08,32,6.70
2008,05,09,08,33,6.60
2008,05,09,08,34,6.60
2008,05,09,08,35,6.70
2008,05,09,08,36,6.70
2008,05,09,08,37,6.70
2008,05,09,08,38,6.70
2008,05,09,08,39,6.70
2008,05,09,08,40,6.80
2008,05,09,08,41,6.70
2008,05,09,08,42,6.70
2008,05,09,08,43,6.80
2008,05,09,08,44,6.80
2008,05,09,08,45,6.80
2008,05,09,08,46,6.80
2008,05,09,08,47,6.80
2008,05,09,08,48,6.80
2008,05,09,08,49,6.80
2008,05,09,08,50,6.80
2008,05,09,08,51,6.80
2008,05,09,08,52,6.80
2008,05,09,08,53,6.80
2008,05,09,08,54,6.90
2008,05,09,08,55,6.90
2008,05,09,08,56,6.90
2008,05,09,08,57,6.90
2008,05,09,08,58,6.90
2008,05,09,08,59,6.90
2008,05,09,09,00,6.90
2008,05,09,09,01,6.90
2008,05,09,09,02,6.90
2008,05,09,09,03,6.90
2008,05,09,09,04,7.00
2008,05,09,09,05,7.00
2008,05,09,09,06,7.10
2008,05,09,09,07,7.10
2008,05,09,09,08,7.10
2008,05,09,09,09,7.10
2008,05,09,09,10,7.10
2008,05,09,09,11,7.10
2008,05,09,09,12,7.10
2008,05,09,09,13,7.10
2008,05,09,09,14,7.10
2008,05,09,09,15,7.10
2008,05,09,09,16,7.20
2008,05,09,09,17,7.20
2008,05,09,09,18,7.30
2008,05,09,09,19,7.30
2008,05,09,09,20,7.30
2008,05,09,09,21,7.30
2008,05,09,09,22,7.40
2008,05,09,09,23,7.40
2008,05,09,09,24,7.40
2008,05,09,09,25,7.40
2008,05,09,09,26,7.40
2008,05,09,09,27,7.40
2008,05,09,09,28,7.30
2008,05,09,09,29,7.40
2008,05,09,09,30,7.40
2008,05,09,09,31,7.40
2008,05,09,09,32,7.40
2008,05,09,09,33,7.40
2008,05,09,09,34,7.40
2008,05,09,09,35,7.40
2008,05,09,09,36,7.50
2008,05,09,09,37,7.50
2008,05,09,09,38,7.50
2008,05,09,09,39,7.60
2008,05,09,09,40,7.60
2008,05,09,09,41,7.60
2008,05,09,09,42,7.60
2008,05,09,09,43,7.70
2008,05,09,09,44,7.70
2008,05,09,09,45,7.70
2008,05,09,09,46,7.80
2008,05,09,09,47,7.80
2008,05,09,09,48,7.80
2008,05,09,09,49,7.80
2008,05,09,09,50,7.80
2008,05,09,09,51,7.90
2008,05,09,09,52,8.00
2008,05,09,09,53,8.10
2008,05,09,09,54,8.20
2008,05,09,09,55,8.20
2008,05,09,09,56,8.20
2008,05,09,09,57,8.20
2008,05,09,09,58,8.20
2008,05,09,09,59,8.20
2008,05,09,10,00,8.20
2008,05,09,10,01,8.20
2008,05,09,10,02,8.20
2008,05,09,10,03,8.30
2008,05,09,10,04,8.30
2008,05,09,10,05,8.40
2008,05,09,10,06,8.40
2008,05,09,10,07,8.50
2008,05,09,10,08,8.50
2008,05,09,10,09,8.50
2008,05,09,10,10,8.50
2008,05,09,10,11,8.50
2008,05,09,10,12,8.50
2008,05,09,10,13,8.60
2008,05,09,10,14,8.60
2008,05,09,10,15,8.70
2008,05,09,10,16,8.70
2008,05,09,10,17,8.80
2008,05,09,10,18,8.80
2008,05,09,10,19,8.90
2008,05,09,10,20,9.10
2008,05,09,10,21,9.20
2008,05,09,10,22,9.20
2008,05,09,10,23,9.20
2008,05,09,10,24,9.30
2008,05,09,10,25,9.30
2008,05,09,10,26,9.30
2008,05,09,10,27,9.30
2008,05,09,10,28,9.30
2008,05,09,10,29,9.30
2008,05,09,10,30,9.30
2008,05,09,10,31,9.40
2008,05,09,10,32,9.30
2008,05,09,10,33,9.40
2008,05,09,10,34,9.40
2008,05,09,10,35,9.50
2008,05,09,10,36,9.50
2008,05,09,10,37,9.50
2008,05,09,10,38,9.60
2008,05,09,10,39,9.60
2008,05,09,10,40,9.60
2008,05,09,10,41,9.70
2008,05,09,10,42,9.70
2008,05,09,10,43,9.70
2008,05,09,10,44,9.70
2008,05,09,10,45,9.70
2008,05,09,10,46,9.70
2008,05,09,10,47,9.70
2008,05,09,10,48,9.70
2008,05,09,10,49,9.80
2008,05,09,10,50,9.80
2008,05,09,10,51,9.90
2008,05,09,10,52,9.90
2008,05,09,10,53,10.00
2008,05,09,10,54,10.10
2008,05,09,10,55,10.10
2008,05,09,10,56,10.10
2008,05,09,10,57,10.10
2008,05,09,10,58,10.20
2008,05,09,10,59,10.30
2008,05,09,11,00,10.30
2008,05,09,11,01,10.30
2008,05,09,11,02,10.20
2008,05,09,11,03,10.20
2008,05,09,11,04,10.30
2008,05,09,11,05,10.30
2008,05,09,11,06,10.40
2008,05,09,11,07,10.40
2008,05,09,11,08,10.40
2008,05,09,11,09,10.50
2008,05,09,11,10,10.50
2008,05,09,11,11,10.50
2008,05,09,11,12,10.50
2008,05,09,11,13,10.40
2008,05,09,11,14,10.50
2008,05,09,11,15,10.60
2008,05,09,11,16,10.60
2008,05,09,11,17,10.60
2008,05,09,11,18,10.60
2008,05,09,11,19,10.60
2008,05,09,11,20,10.60
2008,05,09,11,21,10.70
2008,05,09,11,22,10.70
2008,05,09,11,23,10.70
2008,05,09,11,24,10.70
2008,05,09,11,25,10.70
2008,05,09,11,26,10.70
2008,05,09,11,27,10.70
2008,05,09,11,28,10.80
2008,05,09,11,29,10.80
2008,05,09,11,30,10.70
2008,05,09,11,31,10.70
2008,05,09,11,32,10.80
2008,05,09,11,33,10.70
2008,05,09,11,34,10.80
2008,05,09,11,35,10.80
2008,05,09,11,36,10.90
2008,05,09,11,37,11.00
2008,05,09,11,38,11.10
2008,05,09,11,39,11.00
2008,05,09,11,40,10.90
2008,05,09,11,41,11.10
2008,05,09,11,42,11.10
2008,05,09,11,43,11.20
2008,05,09,11,44,11.10
2008,05,09,11,45,11.10
2008,05,09,11,46,11.10
2008,05,09,11,47,11.20
2008,05,09,11,48,11.20
2008,05,09,11,49,11.20
2008,05,09,11,50,11.10
2008,05,09,11,51,10.90
2008,05,09,11,52,10.90
2008,05,09,11,53,10.90
2008,05,09,11,54,11.00
2008,05,09,11,55,11.10
2008,05,09,11,56,11.10
2008,05,09,11,57,11.10
2008,05,09,11,58,11.10
2008,05,09,11,59,11.20
2008,05,09,12,00,11.30
2008,05,09,12,01,11.30
2008,05,09,12,02,11.40
2008,05,09,12,03,11.30
2008,05,09,12,04,11.30
2008,05,09,12,05,11.40
2008,05,09,12,06,11.40
2008,05,09,12,07,11.40
2008,05,09,12,08,11.40
2008,05,09,12,09,11.40
2008,05,09,12,10,11.30
2008,05,09,12,11,11.10
2008,05,09,12,12,11.10
2008,05,09,12,13,11.20
2008,05,09,12,14,11.30
2008,05,09,12,15,11.20
2008,05,09,12,16,11.30
2008,05,09,12,17,11.40
2008,05,09,12,18,11.40
2008,05,09,12,19,11.40
2008,05,09,12,20,11.40
2008,05,09,12,21,11.40
2008,05,09,12,22,11.30
2008,05,09,12,23,11.20
2008,05,09,12,24,11.10
2008,05,09,12,25,11.20
2008,05,09,12,26,11.30
2008,05,09,12,27,11.40
2008,05,09,12,28,11.40
2008,05,09,12,29,11.40
2008,05,09,12,30,11.40
2008,05,09,12,31,11.40
2008,05,09,12,32,11.40
2008,05,09,12,33,11.50
2008,05,09,12,34,11.70
2008,05,09,12,35,11.60
2008,05,09,12,36,11.50
2008,05,09,12,37,11.50
2008,05,09,12,38,11.60
2008,05,09,12,39,11.60
2008,05,09,12,40,11.60
2008,05,09,12,41,11.60
2008,05,09,12,42,11.60
2008,05,09,12,43,11.70
2008,05,09,12,44,11.70
2008,05,09,12,45,11.70
2008,05,09,12,46,11.60
2008,05,09,12,47,11.50
2008,05,09,12,48,11.40
2008,05,09,12,49,11.40
2008,05,09,12,50,11.30
2008,05,09,12,51,11.20
2008,05,09,12,52,11.00
2008,05,09,12,53,10.90
2008,05,09,12,54,10.80
2008,05,09,12,55,10.70
2008,05,09,12,56,10.70
2008,05,09,12,57,10.60
2008,05,09,12,58,10.60
2008,05,09,12,59,10.40
2008,05,09,13,00,10.40
2008,05,09,13,01,10.40
2008,05,09,13,02,10.40
2008,05,09,13,03,10.40
2008,05,09,13,04,10.40
2008,05,09,13,05,10.40
2008,05,09,13,06,10.40
2008,05,09,13,07,10.40
2008,05,09,13,08,10.40
2008,05,09,13,09,10.40
2008,05,09,13,10,10.40
2008,05,09,13,11,10.40
2008,05,09,13,12,10.40
2008,05,09,13,13,10.40
2008,05,09,13,14,10.40
2008,05,09,13,15,10.40
2008,05,09,13,16,10.40
2008,05,09,13,17,10.40
2008,05,09,13,18,10.40
2008,05,09,13,19,10.30
2008,05,09,13,20,10.40
2008,05,09,13,21,10.40
2008,05,09,13,22,10.40
2008,05,09,13,23,10.40
2008,05,09,13,24,10.40
2008,05,09,13,25,10.40
2008,05,09,13,26,10.40
2008,05,09,13,27,10.40
2008,05,09,13,28,10.30
2008,05,09,13,29,10.30
2008,05,09,13,30,10.40
2008,05,09,13,31,10.50
2008,05,09,13,32,10.70
2008,05,09,13,33,10.80
2008,05,09,13,34,10.80
2008,05,09,13,35,10.80
2008,05,09,13,36,10.90
2008,05,09,13,37,11.10
2008,05,09,13,38,11.20
2008,05,09,13,39,11.30
2008,05,09,13,40,11.40
2008,05,09,13,41,11.30
2008,05,09,13,42,11.20
2008,05,09,13,43,11.10
2008,05,09,13,44,11.20
2008,05,09,13,45,11.20
2008,05,09,13,46,11.20
2008,05,09,13,47,11.30
2008,05,09,13,48,11.30
2008,05,09,13,49,11.30
2008,05,09,13,50,11.30
2008,05,09,13,51,11.20
2008,05,09,13,52,11.20
2008,05,09,13,53,11.10
2008,05,09,13,54,11.10
2008,05,09,13,55,10.90
2008,05,09,13,56,10.90
2008,05,09,13,57,10.80
2008,05,09,13,58,10.90
2008,05,09,13,59,10.90
2008,05,09,14,00,11.00
2008,05,09,14,01,11.10
2008,05,09,14,02,11.10
2008,05,09,14,03,10.80
2008,05,09,14,04,10.70
2008,05,09,14,05,10.70
2008,05,09,14,06,10.60
2008,05,09,14,07,10.60
2008,05,09,14,08,10.40
2008,05,09,14,09,10.40
2008,05,09,14,10,10.30
2008,05,09,14,11,10.40
2008,05,09,14,12,10.30
2008,05,09,14,13,10.40
2008,05,09,14,14,10.50
2008,05,09,14,15,10.70
2008,05,09,14,16,10.70
2008,05,09,14,17,10.60
2008,05,09,14,18,10.50
2008,05,09,14,19,10.40
2008,05,09,14,20,10.40
2008,05,09,14,21,10.50
2008,05,09,14,22,10.60
2008,05,09,14,23,10.60
2008,05,09,14,24,10.50
2008,05,09,14,25,10.40
2008,05,09,14,26,10.40
2008,05,09,14,27,10.40
2008,05,09,14,28,10.40
2008,05,09,14,29,10.30
2008,05,09,14,30,10.20
2008,05,09,14,31,10.20
2008,05,09,14,32,10.10
2008,05,09,14,33,10.00
2008,05,09,14,34,9.90
2008,05,09,14,35,9.90
2008,05,09,14,36,9.80
2008,05,09,14,37,9.80
2008,05,09,14,38,9.70
2008,05,09,14,39,9.90
2008,05,09,14,40,9.90
2008,05,09,14,41,9.90
2008,05,09,14,42,10.00
2008,05,09,14,43,10.10
2008,05,09,14,44,10.10
2008,05,09,14,45,10.10
2008,05,09,14,46,10.20
2008,05,09,14,47,10.20
2008,05,09,14,48,10.30
2008,05,09,14,49,10.20
2008,05,09,14,50,10.20
2008,05,09,14,51,10.20
2008,05,09,14,52,10.30
2008,05,09,14,53,10.30
2008,05,09,14,54,10.30
2008,05,09,14,55,10.30
2008,05,09,14,56,10.20
2008,05,09,14,57,10.10
2008,05,09,14,58,10.00
2008,05,09,14,59,10.10
2008,05,09,15,00,10.00
2008,05,09,15,01,9.90
2008,05,09,15,02,9.80
2008,05,09,15,03,9.70
2008,05,09,15,04,9.50
2008,05,09,15,05,9.40
2008,05,09,15,06,9.40
2008,05,09,15,07,9.50
2008,05,09,15,08,9.60
2008,05,09,15,09,9.50
2008,05,09,15,10,9.50
2008,05,09,15,11,9.50
2008,05,09,15,12,9.50
2008,05,09,15,13,9.50
2008,05,09,15,14,9.40
2008,05,09,15,15,9.60
2008,05,09,15,16,9.60
2008,05,09,15,17,9.70
2008,05,09,15,18,9.70
2008,05,09,15,19,9.70
2008,05,09,15,20,9.80
2008,05,09,15,21,9.80
2008,05,09,15,22,9.70
2008,05,09,15,23,9.70
2008,05,09,15,24,9.60
2008,05,09,15,25,9.50
2008,05,09,15,26,9.50
2008,05,09,15,27,9.60
2008,05,09,15,28,9.70
2008,05,09,15,29,9.70
2008,05,09,15,30,9.80
2008,05,09,15,31,9.70
2008,05,09,15,32,9.70
2008,05,09,15,33,9.70
2008,05,09,15,34,9.70
2008,05,09,15,35,9.90
2008,05,09,15,36,9.90
2008,05,09,15,37,9.90
2008,05,09,15,38,9.90
2008,05,09,15,39,9.90
2008,05,09,15,40,10.10
2008,05,09,15,41,10.00
2008,05,09,15,42,9.90
2008,05,09,15,43,9.90
2008,05,09,15,44,10.00
2008,05,09,15,45,10.10
2008,05,09,15,46,10.10
2008,05,09,15,47,10.10
2008,05,09,15,48,10.10
2008,05,09,15,49,10.20
2008,05,09,15,50,10.20
2008,05,09,15,51,10.20
2008,05,09,15,52,10.20
2008,05,09,15,53,10.40
2008,05,09,15,54,10.40
2008,05,09,15,55,10.30
2008,05,09,15,56,10.30
2008,05,09,15,57,10.30
2008,05,09,15,58,10.30
2008,05,09,15,59,10.20
2008,05,09,16,00,10.10
2008,05,09,16,01,10.10
2008,05,09,16,02,10.10
2008,05,09,16,03,10.20
2008,05,09,16,04,10.40
2008,05,09,16,05,10.40
2008,05,09,16,06,10.40
2008,05,09,16,07,10.60
2008,05,09,16,08,10.70
2008,05,09,16,09,10.70
2008,05,09,16,10,10.80
2008,05,09,16,11,10.90
2008,05,09,16,12,11.10
2008,05,09,16,13,11.10
2008,05,09,16,14,11.10
2008,05,09,16,15,11.20
2008,05,09,16,16,11.30
2008,05,09,16,17,11.40
2008,05,09,16,18,11.40
2008,05,09,16,19,11.40
2008,05,09,16,20,11.40
2008,05,09,16,21,11.40
2008,05,09,16,22,11.40
2008,05,09,16,23,11.50
2008,05,09,16,24,11.60
2008,05,09,16,25,11.70
2008,05,09,16,26,11.70
2008,05,09,16,27,11.70
2008,05,09,16,28,11.70
2008,05,09,16,29,11.80
2008,05,09,16,30,11.80
2008,05,09,16,31,11.70
2008,05,09,16,32,11.80
2008,05,09,16,33,11.80
2008,05,09,16,34,11.80
2008,05,09,16,35,11.80
2008,05,09,16,36,11.80
2008,05,09,16,37,11.90
2008,05,09,16,38,12.00
2008,05,09,16,39,12.10
2008,05,09,16,40,12.20
2008,05,09,16,41,12.20
2008,05,09,16,42,12.20
2008,05,09,16,43,12.20
2008,05,09,16,44,12.10
2008,05,09,16,45,12.00
2008,05,09,16,46,12.00
2008,05,09,16,47,12.00
2008,05,09,16,48,12.00
2008,05,09,16,49,12.10
2008,05,09,16,50,12.20
2008,05,09,16,51,12.20
2008,05,09,16,52,12.20
2008,05,09,16,53,12.20
2008,05,09,16,54,12.20
2008,05,09,16,55,12.30
2008,05,09,16,56,12.30
2008,05,09,16,57,12.30
2008,05,09,16,58,12.20
2008,05,09,16,59,12.20
2008,05,09,17,00,12.20
2008,05,09,17,01,12.20
2008,05,09,17,02,12.20
2008,05,09,17,03,12.20
2008,05,09,17,04,12.20
2008,05,09,17,05,12.20
2008,05,09,17,06,12.10
2008,05,09,17,07,12.10
2008,05,09,17,08,12.10
2008,05,09,17,09,12.00
2008,05,09,17,10,11.90
2008,05,09,17,11,11.90
2008,05,09,17,12,11.80
2008,05,09,17,13,11.70
2008,05,09,17,14,11.60
2008,05,09,17,15,11.60
2008,05,09,17,16,11.60
2008,05,09,17,17,11.60
2008,05,09,17,18,11.60
2008,05,09,17,19,11.50
2008,05,09,17,20,11.50
2008,05,09,17,21,11.60
2008,05,09,17,22,11.60
2008,05,09,17,23,11.60
2008,05,09,17,24,11.60
2008,05,09,17,25,11.60
2008,05,09,17,26,11.50
2008,05,09,17,27,11.40
2008,05,09,17,28,11.40
2008,05,09,17,29,11.40
2008,05,09,17,30,11.40
2008,05,09,17,31,11.40
2008,05,09,17,32,11.40
2008,05,09,17,33,11.50
2008,05,09,17,34,11.60
2008,05,09,17,35,11.60
2008,05,09,17,36,11.60
2008,05,09,17,37,11.50
2008,05,09,17,38,11.40
2008,05,09,17,39,11.40
2008,05,09,17,40,11.40
2008,05,09,17,41,11.40
2008,05,09,17,42,11.40
2008,05,09,17,43,11.40
2008,05,09,17,44,11.40
2008,05,09,17,45,11.40
2008,05,09,17,46,11.40
2008,05,09,17,47,11.40
2008,05,09,17,48,11.50
2008,05,09,17,49,11.60